User: anonymous   Login
Location: Spradlin Observatory
(33.4706°N, 86.3221°W)
Time: 07:53:45
(UTC-05:00)
Language:

COSMOS 2406 - Orbit

View from above orbital plane
View from above orbital plane
View from above satellite
View from above satellite

Ground track
Ground track

The orbit data is extracted from the following two-line orbital elements,

1 28352U 04021A   16206.07468284  .00000330  00000-0  20785-3 0  9992
2 28352  71.0036  89.7315 0016597 242.3651 117.5785 14.11450558624542
Epoch (UTC): 24 July 2016 01:47:32
Eccentricity: 0.0016597
inclination: 71.0036°
perigee height: 842 km
apogee height: 866 km
right ascension of ascending node: 89.7315°
argument of perigee: 242.3651°
revolutions per day: 14.11450558
mean anomaly at epoch: 117.5785°
orbit number at epoch: 62454

The dashed part of the orbit path shows where the satellite is in the earth's shadow,  

DLR